Regional Weather Roundup
Issued by NWS Spokane, WA

Home | Current Version | Previous Version | Text Only | Print | Product List | Glossary On
Versions: 1 2 3 4 5 6 7 8 9 10 11 12 13 14 15 16 17 18 19 20 21 22 23 24 25 26 27 28 29 30 31 32 33 34 35 36 37 38 39 40 41 42 43 44 45 46 47 48 49 50
395
NZUS01 KOTX 092357
RWROTX

Eastern Washington/Northern Idaho Roundup
National Weather Service, Spokane WA
400 PM PST FRI DEC 09 2016

Note: "fair" indicated few or no clouds below 12,000 feet with no
significant weather and/or obstructions to visibility.

...Northeast Washington and Northern Idaho Panhandle...

CITY           SKY/WX    TMP DP  RH WIND       PRES   REMARKS
Spokane Intl   CLOUDY    19  16  88 NE9       30.01S FOG     WCI   8
Spokane Downto LGT SNOW  22  18  85 W3        30.05F FOG
Deer Park      LGT SNOW  19  14  81 NE12      30.04F WCI   7

...Southeast Washington and southern Idaho Panhandle...

CITY           SKY/WX    TMP DP  RH WIND       PRES   REMARKS
Walla Walla    LGT SNOW  22  20  92 SE3       30.08F VSB 3/4
Pullman/Moscow CLOUDY    24  21  88 W3        29.99F
Lewiston       LGT SNOW  28  24  85 CALM      30.04S FOG
Lowell           N/A     28  24  85 N3        30.09F

...Columbia Basin...

CITY           SKY/WX    TMP DP  RH WIND       PRES   REMARKS
Ephrata        LGT SNOW  23  17  78 N5        30.09R WCI  17
Moses Lake     CLOUDY    24  19  81 N7        30.09S WCI  16
Pasco          CLOUDY    26  22  84 CALM      30.15F
Hermiston      CLOUDY    26  22  84 CALM      30.11F
Pendleton      CLOUDY    21  18  88 N3        30.04F

...East Slopes Cascades...

CITY           SKY/WX    TMP DP  RH WIND       PRES   REMARKS
The Dalles     LGT SNOW  27  25  92 CALM      30.14F FOG
Yakima         LGT SNOW  26  20  77 CALM      30.09F
Ellensburg     LGT SNOW  22  18  85 N3        30.05S FOG
Wenatchee      LGT SNOW  21  19  93 CALM      30.10S FOG
Omak           LGT SNOW  20  16  84 SW3       30.11F VSB 1
Sunnyside      LGT SNOW  24  21  88 CALM      30.11F

...Southern British Columbia...

CITY           SKY/WX    TMP DP  RH WIND       PRES   REMARKS

...Western Montana...

CITY           SKY/WX    TMP DP  RH WIND       PRES   REMARKS
Kalispell      LGT SNOW   9   3  78 N7        30.11F FOG     WCI  -3
Missoula       CLOUDY    17  11  77 NW3       30.07F

...Neighboring Cities...

CITY           SKY/WX    TMP DP  RH WIND       PRES   REMARKS
Seattle        CLOUDY    34  31  88 E16       29.92F WCI  24
Portland       LGT RAIN  33  31  92 SE13      29.99S FOG     WCI  24
Boise          FRZ RAIN  31  29  92 N6        30.06R FOG     WCI  25
Great Falls    CLOUDY    -2  -8  76 CALM      30.14F



USA.gov is the U.S. government's official web portal to all federal, state and local government web resources and services.